#timestamp,LO_Frequency,Hit,StdDev 
1504260015.2,286047001.8,N,1.2
1504260035.1,286047001.7,N,1.2
1504260036.0,286047001.7,N,1.1
1504260055.8,286047001.6,N,1.1
1504260075.6,286047002.6,N,1.1
1504260095.5,286047002.5,N,1.1
1504260115.3,286047002.2,N,1.1
1504260135.1,286047001.5,N,1.1
1504260155.9,286047001.8,N,1.1
1504260175.7,286047001.9,N,1.1
1504260195.6,286047001.5,N,1.1
1504260215.4,286047002.3,N,1.1
1504260235.2,286047001.7,N,1.0
1504260255.1,286047002.0,N,1.0
1504260256.0,286047002.0,N,1.0
1504260275.8,286047002.8,N,1.0
1504260295.7,286047002.2,N,1.0
1504260315.5,286047001.8,N,0.9
1504260335.3,286047004.4,Y,0.0
1504260355.2,286047002.3,P,0.3
1504260375.0,286047001.9,P,0.3
1504260375.9,286047001.9,P,0.2
1504260395.8,286047002.4,Y,0.0
1504260415.6,286047001.0,P,0.5
1504260435.4,286046998.1,P,1.6
1504260455.3,286046998.1,N,1.7
1504260475.1,286046999.4,N,1.5
1504260495.8,286046999.0,N,1.4
1504260515.7,286046999.4,N,1.3
1504260535.5,286047001.2,N,1.4
1504260555.4,286046998.7,N,1.3
1504260575.2,286046998.9,N,1.3
1504260595.0,286046997.1,N,1.4
1504260595.9,286046997.1,N,1.5
1504260615.8,286046998.8,N,1.4
1504260635.6,286046999.2,N,1.4
1504260655.5,286046996.9,N,1.4
1504260675.3,286046998.7,N,1.4
1504260695.1,286046999.1,N,1.4
1504260715.9,286046999.2,N,1.3
1504260735.7,286046999.4,N,1.3
1504260755.6,286046999.0,N,1.3
1504260775.4,286047001.2,N,1.3
1504260795.2,286046998.3,N,1.3
1504260815.1,286046998.5,N,1.3
1504260816.0,286046998.5,N,1.2
1504260835.8,286046998.4,N,1.2
1504260855.7,286046998.9,N,1.2
1504260875.5,286046998.9,N,1.2
1504260895.3,286047001.2,N,1.2
1504260915.2,286046998.6,N,1.2
1504260935.9,286046998.6,N,1.2
1504260955.7,286047000.7,N,1.1
1504260975.6,286047000.8,N,1.1
1504260995.4,286046998.2,N,1.1
1504261015.3,286046998.2,N,1.1
1504261035.1,286046998.2,N,1.1
1504261036.0,286046998.2,N,1.1
1504261055.8,286046998.5,N,1.1
1504261075.7,286046998.6,N,1.0
1504261095.5,286047001.2,N,1.1
1504261115.3,286046998.5,N,1.1
1504261135.2,286046998.1,N,1.1
1504261155.0,286047000.7,N,1.1
1504261155.9,286047000.7,N,1.1
1504261175.8,286046999.0,N,1.1
1504261195.6,286046999.5,N,1.0
1504261215.4,286046998.8,N,1.0
1504261235.3,286046999.0,N,1.0
1504261255.1,286046998.1,N,1.0
1504261275.9,286046998.3,N,1.1
1504261295.7,286047001.1,N,1.1
1504261315.5,286047000.6,N,1.1
1504261335.4,286047000.4,N,1.1
1504261355.2,286047000.6,N,1.1
1504261375.0,286046999.9,N,1.1
1504261375.9,286046999.9,N,1.1
1504261395.8,286046998.1,N,1.1
1504261415.6,286047000.9,N,1.1
1504261435.5,286047000.6,N,1.1
1504261455.3,286047000.0,N,1.1
1504261475.1,286047000.0,N,1.1
1504261495.9,286047002.4,N,1.2
1504261515.7,286046999.9,N,1.2
1504261535.5,286047002.2,N,1.2
1504261555.4,286047000.5,N,1.2
1504261575.2,286047000.0,N,1.2
1504261595.1,286047002.0,N,1.2
1504261596.0,286047002.0,N,1.2
1504261615.8,286047002.3,N,1.3
1504261635.6,286047002.5,N,1.3
1504261655.5,286047001.7,N,1.3
1504261675.3,286047002.4,N,1.3
1504261695.2,286047002.5,N,1.3
1504261715.9,286047001.9,N,1.4
1504261735.7,286047001.4,N,1.3
1504261755.6,286047004.3,Y,0.0
1504261775.4,286047002.5,P,0.9
1504261795.3,286047001.9,N,0.8
1504261815.1,286047001.4,N,0.7
1504261816.0,286047001.4,N,0.6
1504261835.8,286047004.0,Y,0.0
1504261855.7,286047002.3,P,0.4
1504261875.5,286047002.7,P,0.5
1504261895.3,286047002.7,P,0.5
1504261915.2,286047000.1,N,1.0
1504261935.0,286047000.5,N,1.0
1504261935.9,286047000.5,N,1.0
1504261955.8,286047002.7,N,1.0
1504261975.6,286047002.8,N,1.1
1504261995.4,286047000.9,N,1.0
1504262015.3,286046999.8,N,1.1
1504262035.1,286047001.0,N,1.1
1504262055.9,286047000.0,N,1.1
1504262075.7,286047000.9,N,1.1
1504262095.5,286046998.5,N,1.3
1504262115.4,286047001.1,N,1.2
1504262135.2,286047001.2,N,1.2
1504262155.0,286047001.1,N,1.1
1504262156.0,286047001.1,N,1.1
1504262175.8,286046998.2,N,1.3
1504262195.6,286046998.4,N,1.3
1504262215.5,286046999.1,N,1.4
1504262235.3,286046996.5,N,1.6
1504262255.1,286046996.7,N,1.7
1504262275.9,286046997.1,N,1.8
1504262295.7,286046997.5,N,1.9
1504262315.6,286046994.9,N,2.1
1504262335.4,286046998.3,N,2.1
1504262355.2,286046999.2,N,2.0
1504262375.1,286046997.4,N,2.1
1504262376.0,286046997.4,N,2.1
1504262395.8,286046995.3,N,2.2
1504262415.7,286046993.7,N,2.3
1504262435.5,286046993.7,N,2.4
1504262455.3,286046996.4,N,2.4
1504262475.2,286046995.9,N,2.5
1504262495.0,286046995.6,N,2.5
1504262495.9,286046995.6,N,2.4
1504262515.8,286046993.7,N,2.4
1504262535.6,286046993.3,N,2.5
1504262555.4,286046996.4,N,2.4
1504262575.3,286046993.9,N,2.4
1504262595.1,286046996.1,N,2.4
1504262615.9,286046993.4,N,2.4
1504262635.7,286046994.1,N,2.4
1504262655.5,286046994.1,N,2.3
1504262675.4,286046994.3,N,2.2
1504262695.2,286046994.6,N,2.0
1504262715.0,286046993.9,Y,0.0
1504262715.9,286046993.9,P,1.1
1504262735.8,286046996.8,N,1.2
1504262755.6,286046997.3,N,1.3
1504262775.5,286046997.6,N,1.3
1504262795.3,286046996.7,N,1.2
1504262815.1,286046997.4,N,1.2
1504262835.9,286046998.0,N,1.2
1504262855.7,286046994.9,Y,0.0
1504262875.6,286046998.6,P,0.9
1504262895.4,286046998.7,N,0.9
1504262915.2,286047000.5,N,1.3
1504262935.1,286047001.1,N,1.6
1504262936.0,286047001.1,N,1.6
1504262955.8,286046998.7,N,1.5
1504262975.6,286046999.3,N,1.4
1504262995.5,286046996.5,N,1.6
1504263015.3,286046996.7,N,1.7
1504263035.2,286046997.9,N,1.6
1504263055.0,286046997.3,N,1.6
1504263055.9,286046997.3,N,1.6
1504263075.8,286046996.5,N,1.6
1504263095.6,286046999.2,N,1.6
1504263115.4,286046998.6,N,1.5
1504263135.3,286046998.8,N,1.5
1504263155.1,286046999.6,N,1.4
1504263175.8,286046996.6,N,1.5
1504263195.7,286046996.5,N,1.5
1504263215.5,286046996.8,N,1.5
1504263235.4,286046996.8,N,1.5
1504263255.2,286046997.5,N,1.5
1504263275.0,286046997.6,N,1.4
1504263275.9,286046997.6,N,1.4
1504263295.8,286046997.2,N,1.4
1504263315.6,286046997.2,N,1.4
1504263335.5,286046997.6,N,1.4
1504263355.3,286046997.2,N,1.3
1504263375.1,286046995.4,Y,0.0
1504263395.9,286046999.5,P,0.8
1504263415.7,286046998.7,N,0.6
1504263435.5,286046999.2,N,0.6
1504263455.4,286046999.1,N,0.5
1504263475.2,286046998.8,N,0.5
1504263495.1,286046999.4,N,0.5
1504263496.0,286046999.4,N,0.5
1504263515.8,286046996.5,Y,0.0
1504263535.6,286047001.2,P,1.1
1504263555.5,286046998.5,N,1.2
1504263575.3,286046998.5,N,1.1
1504263595.2,286046998.9,N,1.0
